RH
26 24 22 25 30 36 34 28 29 36 34 37 29 30 28 28 26 26 31 30 37 40 37 43 44 42 40 38 45 40 37 36
21 23 24 30 39 36 32 32 37 30 26 26 24 26 25 26 26 33 36 34 36 40 36 39 41 41 44 49 47 49 46 40
23 25 28 30 33 33 31 28 29 27 24 28 31 34 28 30 28 32 30 33 32 32 37 37 38 38 44 47 51 50 47 44
22 26 30 32 34 32 29 30 31 33 30 26 26 27 27 27 28 26 29 33 32 34 36 39 42 40 38 42 44 48 45 44
21 23 28 31 37 36 32 32 30 31 34 32 38 31 32 33 33 30 31 32 33 32 35 40 43 40 42 41 34 43 45 45
29 30 30 31 35 38 36 33 32 33 32 37 34 38 36 34 34 35 32 29 32 33 39 44 45 42 44 51 53 52 49 50
31 31 30 32 36 40 38 33 32 35 36 37 44 47 44 38 34 33 30 31 31 36 40 45 47 47 48 48 54 58 57 58
31 31 30 34 38 39 35 34 32 35 39 38 39 39 40 38 37 34 38 35 35 40 47 47 42 46 47 48 53 56 64 68
32 31 32 35 38 39 38 36 34 33 36 34 32 38 38 36 38 39 40 41 42 48 48 46 47 48 50 54 63 64 62 64
32 31 33 36 39 40 44 40 33 34 37 39 42 43 43 44 45 44 41 46 41 48 51 47 42 46 48 53 60 68 67 68
31 30 35 38 38 42 43 42 39 40 40 41 41 43 43 44 44 46 47 48 50 47 45 44 45 49 58 61 64 65 65 62
32 33 33 34 39 40 41 43 44 42 40 42 43 45 43 43 45 47 49 50 46 43 44 48 53 67 76 78 67 57 47 47
32 34 36 38 42 42 42 44 41 43 42 42 43 44 42 44 48 50 54 55 54 52 61 72 71 71 60 55 53 45 42 40
32 35 38 41 40 42 48 52 49 43 41 40 41 48 48 52 56 60 64 68 70 74 69 68 68 62 56 47 40 39 41 42
39 45 43 43 48 51 55 50 48 46 44 42 46 52 61 67 71 63 59 55 54 50 47 48 50 43 39 37 35 40 41 38
46 46 46 43 44 46 48 49 47 50 48 44 49 48 45 44 45 44 43 42 36 34 35 36 38 36 30 48 39 41 42 43
51 54 48 39 39 45 51 43 46 53 48 47 42 43 40 39 40 39 36 34 33 35 36 38 40 30 76 72 67 48 43 41
61 54 37 39 42 53 43 40 46 50 44 40 42 43 37 37 32 30 32 36 39 41 40 42 45 44 65 67 69 49 46 45
45 38 35 38 43 41 40 38 43 44 42 40 42 39 36 32 32 33 36 37 39 40 43 44 44 38 62 67 68 56 54 52
Wind_Speed
7 7 5 5 6 8 10 7 5 2 1 2 3 3 2 3 4 5 7 7 9 9 10 11 10 10 10 11 12 12 11 12
4 1 1 3 5 7 8 7 5 3 1 4 3 4 4 4 5 7 8 8 9 10 9 11 11 11 12 13 13 15 13 13
9 9 8 5 8 8 7 6 7 5 3 4 3 5 5 5 5 8 9 12 12 10 10 11 12 11 13 13 14 12 13 13
11 11 11 10 9 7 8 10 10 9 6 4 3 2 4 5 8 9 11 13 13 12 12 10 11 11 11 13 13 16 14 13
9 7 8 9 10 11 11 10 8 8 8 6 6 6 7 7 7 7 10 11 12 12 12 11 11 9 11 12 12 13 14 15
9 9 11 11 10 9 8 7 8 7 6 7 6 7 6 6 8 12 12 11 12 11 11 11 10 8 9 11 10 10 10 12
9 9 9 10 9 8 6 6 7 8 7 8 8 8 10 10 11 11 10 11 10 12 10 8 6 6 6 6 6 7 8 9
7 6 7 7 7 7 5 7 7 8 8 5 5 8 12 13 14 12 15 11 10 10 9 7 5 4 4 3 3 3 5 4
6 4 5 6 5 7 6 5 5 5 4 7 8 11 9 10 13 13 11 11 10 7 6 7 7 6 5 6 5 7 8 6
5 5 5 5 5 3 5 7 7 8 9 9 9 10 12 11 13 12 10 11 7 6 7 7 5 6 6 7 5 6 8 8
6 8 5 5 6 6 7 8 8 8 9 8 9 10 10 10 10 12 11 8 7 7 6 5 5 6 8 8 7 5 6 6
10 11 11 10 7 6 8 8 7 7 8 8 10 9 8 9 9 9 9 9 7 7 6 7 8 10 8 8 9 12 9 8
10 10 9 8 6 7 7 6 8 7 9 9 9 8 8 9 9 9 9 10 8 9 10 10 10 9 10 10 11 11 10 10
12 12 10 8 8 8 7 6 7 8 8 8 7 8 9 9 10 9 9 9 9 9 9 9 10 12 13 10 10 11 12 12
12 11 9 6 5 5 6 6 6 7 7 8 9 9 8 7 6 6 6 8 10 11 12 12 11 11 12 12 12 12 12 11
12 11 11 12 9 8 7 7 7 6 6 8 6 6 6 7 9 10 10 10 10 11 11 11 11 11 7 11 13 12 11 11
12 11 14 11 10 11 7 9 7 6 6 4 5 7 8 8 9 10 11 11 10 11 11 11 12 9 10 11 12 13 14 15
12 13 13 12 13 9 11 10 5 6 6 5 6 7 8 8 10 11 11 11 11 12 11 11 11 12 8 12 15 13 15 15
13 12 14 15 13 12 10 8 7 7 7 7 7 7 8 9 10 10 11 11 12 11 10 11 12 11 8 11 17 15 14 15
Wind_Direction
176 217 221 220 201 193 177 170 145 139 327 290 277 278 290 293 324 339 323 316 311 298 291 288 284 278 275 273 270 269 256 266
160 102 160 129 129 155 176 128 76 64 357 326 314 300 306 338 1 360 338 344 324 313 299 294 289 280 277 279 273 262 258 254
90 87 93 91 88 75 96 97 70 47 33 16 352 337 7 350 351 335 336 342 328 310 304 296 293 291 285 277 276 274 265 254
75 73 71 79 77 77 79 77 76 62 44 36 5 318 320 342 341 341 344 331 323 317 307 297 294 289 286 288 281 280 276 267
66 66 60 68 69 80 80 76 71 62 27 41 23 2 344 346 333 323 314 313 308 309 310 304 299 295 291 290 288 289 284 278
68 73 77 76 77 71 61 64 54 53 43 22 359 354 344 334 318 319 311 315 315 313 311 306 304 304 311 307 306 298 288 282
84 89 91 86 75 61 48 21 35 29 19 22 6 339 329 332 328 321 325 322 320 315 318 305 315 328 337 344 360 15 3 10
97 92 80 65 58 43 35 25 11 15 19 334 309 326 330 326 331 330 326 320 320 319 318 315 319 342 359 360 6 22 64 33
75 46 17 31 20 16 2 342 347 322 313 331 338 337 333 328 333 326 317 317 315 321 304 306 314 311 308 314 32 4 348 340
32 358 338 321 306 302 314 324 334 331 340 338 335 332 331 329 324 316 313 308 306 297 300 302 341 356 9 3 16 7 352 340
354 343 348 307 297 299 324 332 334 332 333 335 329 324 319 320 319 323 319 310 304 304 318 319 336 342 346 340 323 284 260 272
333 335 333 326 316 309 326 328 326 328 333 331 321 326 328 325 328 328 324 308 311 302 312 320 340 347 328 290 274 264 269 278
321 324 329 322 320 327 334 341 336 344 343 330 330 323 325 332 331 330 327 324 324 332 344 335 317 291 294 291 290 286 281 292
329 334 332 333 330 349 345 342 336 333 325 326 338 330 328 336 334 330 327 331 336 317 291 291 305 308 303 290 283 283 289 293
340 326 318 322 320 315 331 317 313 315 320 338 342 331 338 343 330 314 306 302 304 309 310 309 314 313 307 298 301 301 294 291
332 325 330 312 308 310 313 314 322 319 325 331 344 345 326 309 313 326 332 322 318 320 315 317 315 309 327 330 312 306 293 291
337 317 302 304 314 319 323 317 308 263 315 305 317 325 328 335 327 319 322 324 328 321 322 321 320 316 37 345 329 308 301 292
304 307 306 322 317 310 312 317 281 265 302 268 317 323 328 329 327 327 328 325 323 322 324 327 323 314 31 335 323 302 300 294
311 313 316 318 313 310 312 301 274 278 286 280 310 324 316 324 323 324 321 320 320 321 324 323 316 314 356 326 317 297 294 293